| time (UTC) | temp F | wind direction | speed MPH | gust MPH | rain 1hr in | rain 24hr in | rain mn in | humidity % | barometer mb |
| 20260506073220 | 68 | 345 | 0.0 | 0.0 | 0.00 | 0.00 | 0.00 | 0 | |
| 20260506072719 | 68 | 345 | 0.0 | 0.0 | 0.00 | 0.00 | 0.00 | 0 | |
| 20260506072220 | 68 | 345 | 0.0 | 0.0 | 0.00 | 0.00 | 0.00 | 0 | |
| 20260506071720 | 68 | 359 | 0.0 | 0.0 | 0.00 | 0.00 | 0.00 | 0 | |
| 20260506071220 | 68 | 359 | 0.0 | 0.0 | 0.00 | 0.00 | 0.00 | 0 | |
| 20260506070720 | 68 | 359 | 0.0 | 0.0 | 0.00 | 0.00 | 0.00 | 0 | |
| 20260506070219 | 68 | 359 | 0.0 | 0.0 | 0.00 | 0.00 | 0.00 | 0 | |
| 20260506062219 | 68 | 359 | 0.0 | 0.0 | 0.00 | 0.00 | 0.00 | 0 | |
| 20260506061720 | 68 | 39 | 0.0 | 0.0 | 0.00 | 0.00 | 0.00 | 0 | |
| 20260506061220 | 68 | 39 | 0.0 | 0.0 | 0.00 | 0.00 | 0.00 | 0 | |
| 20260506060719 | 69 | 39 | 0.0 | 0.0 | 0.00 | 0.00 | 0.00 | 0 | |
| 20260506060219 | 69 | 30 | 0.0 | 0.0 | 0.00 | 0.00 | 0.00 | 0 | |
| 20260506051219 | 70 | 183 | 0.0 | 0.0 | 0.00 | 0.00 | 0.00 | 0 | |
| 20260506050720 | 70 | 183 | 0.0 | 0.0 | 0.00 | 0.00 | 0.00 | 0 | |
| 20260506050220 | 70 | 276 | 0.0 | 0.0 | 0.00 | 0.00 | 0.00 | 0 | |
| 20260506044719 | 70 | 266 | 0.0 | 0.0 | 0.00 | 0.00 | 0.00 | 0 | |
| 20260506044219 | 70 | 266 | 8.0 | 0.0 | 0.00 | 0.00 | 0.00 | 0 | |
| 20260506043719 | 70 | 45 | 0.0 | 0.0 | 0.00 | 0.00 | 0.00 | 0 | |
| 20260506043219 | 70 | 45 | 0.0 | 0.0 | 0.00 | 0.00 | 0.00 | 0 | |
| 20260506042719 | 70 | 45 | 0.0 | 0.0 | 0.00 | 0.00 | 0.00 | 0 | |
| 20260506042219 | 70 | 45 | 0.0 | 0.0 | 0.00 | 0.00 | 0.00 | 0 | |
| 20260506041719 | 71 | 45 | 0.0 | 0.0 | 0.00 | 0.00 | 0.00 | 0 | |
| 20260506041219 | 71 | 45 | 0.0 | 0.0 | 0.00 | 0.00 | 0.00 | 0 | |
| 20260506040719 | 71 | 45 | 0.0 | 0.0 | 0.00 | 0.00 | 0.00 | 0 | |
| 20260506040219 | 71 | 45 | 0.0 | 0.0 | 0.00 | 0.00 | 0.00 | 0 | |
| 20260506035219 | 72 | 84 | 7.0 | 0.0 | 0.00 | 0.00 | 0.00 | 0 | |
| 20260506034719 | 72 | 145 | 0.0 | 0.0 | 0.00 | 0.00 | 0.00 | 0 | |
| 20260506034219 | 72 | 145 | 0.0 | 0.0 | 0.00 | 0.00 | 0.00 | 0 | |
| 20260506033720 | 72 | 8 | 0.0 | 0.0 | 0.00 | 0.00 | 0.00 | 0 | |
| 20260506033220 | 72 | 8 | 0.0 | 0.0 | 0.00 | 0.00 | 0.00 | 0 | |
| 20260506032719 | 72 | 100 | 0.0 | 0.0 | 0.00 | 0.00 | 0.00 | 0 | |
| 20260506032220 | 72 | 359 | 0.0 | 0.0 | 0.00 | 0.00 | 0.00 | 0 | |
| 20260506031719 | 72 | 359 | 0.0 | 0.0 | 0.00 | 0.00 | 0.00 | 0 | |
| 20260506031220 | 73 | 359 | 0.0 | 0.0 | 0.00 | 0.00 | 0.00 | 0 | |
| 20260506030719 | 73 | 359 | 0.0 | 0.0 | 0.00 | 0.00 | 0.00 | 0 | |
| 20260506030220 | 73 | 359 | 0.0 | 0.0 | 0.00 | 0.00 | 0.00 | 0 | |
| 20260506025219 | 73 | 359 | 0.0 | 0.0 | 0.00 | 0.00 | 0.00 | 0 | |
| 20260506024719 | 73 | 359 | 6.0 | 0.0 | 0.00 | 0.00 | 0.00 | 0 | |
| 20260506024219 | 73 | 359 | 0.0 | 0.0 | 0.00 | 0.00 | 0.00 | 0 | |
| 20260506023720 | 73 | 359 | 0.0 | 0.0 | 0.00 | 0.00 | 0.00 | 0 | |
| 20260506023219 | 73 | 169 | 0.0 | 0.0 | 0.00 | 0.00 | 0.00 | 0 | |
| 20260506022719 | 74 | 169 | 0.0 | 0.0 | 0.00 | 0.00 | 0.00 | 0 | |
| 20260506022220 | 72 | 214 | 17.0 | 0.0 | 0.00 | 0.00 | 0.00 | 0 | |
| 20260506021720 | 74 | 359 | 0.0 | 0.0 | 0.00 | 0.00 | 0.00 | ||
| 20260506021219 | 74 | 198 | 0.0 | 0.0 | 0.00 | 0.00 | 0.00 | 0 | |
| 20260506020719 | 74 | 359 | 0.0 | 0.0 | 0.00 | 0.00 | 0.00 | 0 | |
| 20260506020219 | 74 | 359 | 0.0 | 0.0 | 0.00 | 0.00 | 0.00 | 0 | |
| 20260506015719 | 74 | 198 | 0.0 | 0.0 | 0.00 | 0.00 | 0.00 | 0 | |
| 20260506015219 | 74 | 198 | 0.0 | 0.0 | 0.00 | 0.00 | 0.00 | 0 | |
| 20260506014719 | 75 | 214 | 9.0 | 0.0 | 0.00 | 0.00 | 0.00 | 0 | |
| 20260506014219 | 75 | 222 | 0.0 | 0.0 | 0.00 | 0.00 | 0.00 | 0 | |
| 20260506013719 | 75 | 222 | 0.0 | 0.0 | 0.00 | 0.00 | 0.00 | 0 | |
| 20260506013219 | 75 | 222 | 0.0 | 0.0 | 0.00 | 0.00 | 0.00 | 0 | |
| 20260506012720 | 75 | 219 | 0.0 | 0.0 | 0.00 | 0.00 | 0.00 | 0 | |
| 20260506012219 | 75 | 219 | 0.0 | 0.0 | 0.00 | 0.00 | 0.00 | 0 | |
| 20260506011719 | 76 | 219 | 0.0 | 0.0 | 0.00 | 0.00 | 0.00 | 0 | |
| 20260506011219 | 76 | 219 | 0.0 | 0.0 | 0.00 | 0.00 | 0.00 | 0 | |
| 20260506010719 | 76 | 125 | 0.0 | 0.0 | 0.00 | 0.00 | 0.00 | 0 | |
| 20260506010219 | 76 | 211 | 0.0 | 0.0 | 0.00 | 0.00 | 0.00 | 0 | |
| 20260506005719 | 76 | 211 | 0.0 | 0.0 | 0.00 | 0.00 | 0.00 | 0 | |
| 20260506005219 | 76 | 177 | 0.0 | 0.0 | 0.00 | 0.00 | 0.00 | 0 | |
| 20260506003719 | 77 | 143 | 0.0 | 0.0 | 0.00 | 0.00 | 0.00 | 0 | |
| 20260506003219 | 77 | 359 | 0.0 | 0.0 | 0.00 | 0.00 | 0.00 | 0 | |
| 20260506002719 | 77 | 359 | 0.0 | 0.0 | 0.00 | 0.00 | 0.00 | 0 | |
| 20260506002219 | 77 | 359 | 0.0 | 0.0 | 0.00 | 0.00 | 0.00 | 0 | |
| 20260506001719 | 78 | 359 | 0.0 | 0.0 | 0.00 | 0.00 | 0.00 | 0 | |
| 20260506000719 | 78 | 359 | 0.0 | 0.0 | 0.00 | 0.00 | 0.00 | 0 | |
| 20260506000220 | 78 | 359 | 0.0 | 0.0 | 0.00 | 0.00 | 0.00 | 0 | |
| 20260505235719 | 78 | 13 | 0.0 | 0.0 | 0.00 | 0.00 | 0.00 | 0 | |
| 20260505235219 | 78 | 13 | 0.0 | 0.0 | 0.00 | 0.00 | 0.00 | 0 | |
| 20260505234719 | 78 | 13 | 0.0 | 0.0 | 0.00 | 0.00 | 0.00 | 0 | |
| 20260505234219 | 78 | 13 | 0.0 | 0.0 | 0.00 | 0.00 | 0.00 | 0 | |
| 20260505233719 | 78 | 13 | 0.0 | 0.0 | 0.00 | 0.00 | 0.00 | 1 | |
| 20260505233219 | 79 | 316 | 0.0 | 0.0 | 0.00 | 0.00 | 0.00 | 1 | |
| 20260505232719 | 79 | 316 | 0.0 | 0.0 | 0.00 | 0.00 | 0.00 | 1 | |
| 20260505232219 | 79 | 316 | 0.0 | 0.0 | 0.00 | 0.00 | 0.00 | 1 | |
| 20260505231719 | 79 | 316 | 0.0 | 0.0 | 0.00 | 0.00 | 0.00 | 1 | |
| 20260505231219 | 79 | 316 | 0.0 | 0.0 | 0.00 | 0.00 | 0.00 | 1 | |
| 20260505230220 | 79 | 316 | 0.0 | 0.0 | 0.00 | 0.00 | 0.00 | 1 | |
| 20260505225719 | 79 | 316 | 0.0 | 0.0 | 0.00 | 0.00 | 0.00 | 2 | |
| 20260505225219 | 78 | 316 | 0.0 | 0.0 | 0.00 | 0.00 | 0.00 | 2 | |
| 20260505224719 | 78 | 316 | 0.0 | 0.0 | 0.00 | 0.00 | 0.00 | 2 | |
| 20260505224219 | 78 | 316 | 0.0 | 0.0 | 0.00 | 0.00 | 0.00 | 2 | |
| 20260505223719 | 78 | 316 | 0.0 | 0.0 | 0.00 | 0.00 | 0.00 | 2 | |
| 20260505223219 | 78 | 316 | 0.0 | 0.0 | 0.00 | 0.00 | 0.00 | 2 | |
| 20260505222719 | 78 | 316 | 0.0 | 0.0 | 0.00 | 0.00 | 0.00 | 2 | |
| 20260505222219 | 78 | 273 | 0.0 | 0.0 | 0.00 | 0.00 | 0.00 | 2 | |
| 20260505221719 | 78 | 273 | 0.0 | 0.0 | 0.00 | 0.00 | 0.00 | 2 | |
| 20260505221219 | 78 | 273 | 0.0 | 0.0 | 0.00 | 0.00 | 0.00 | 2 | |
| 20260505220820 | 79 | 273 | 0.0 | 0.0 | 0.00 | 0.00 | 0.00 | 2 | |
| 20260505220718 | 79 | 273 | 0.0 | 0.0 | 0.00 | 0.00 | 0.00 | 2 | |
| 20260505220219 | 79 | 273 | 0.0 | 0.0 | 0.00 | 0.00 | 0.00 | 1 | |
| 20260505215719 | 80 | 273 | 0.0 | 0.0 | 0.00 | 0.00 | 0.00 | 1 | |
| 20260505215219 | 80 | 359 | 0.0 | 0.0 | 0.00 | 0.00 | 0.00 | 1 | |
| 20260505214719 | 80 | 359 | 0.0 | 0.0 | 0.00 | 0.00 | 0.00 | 1 | |
| 20260505214220 | 80 | 359 | 0.0 | 0.0 | 0.00 | 0.00 | 0.00 | 2 | |
| 20260505213719 | 79 | 343 | 0.0 | 0.0 | 0.00 | 0.00 | 0.00 | 2 | |
| 20260505213219 | 78 | 343 | 0.0 | 0.0 | 0.00 | 0.00 | 0.00 | 2 | |
| 20260505212719 | 77 | 343 | 0.0 | 0.0 | 0.00 | 0.00 | 0.00 | 2 | |
| 20260505212219 | 77 | 343 | 0.0 | 0.0 | 0.00 | 0.00 | 0.00 | 2 | |
| 20260505211719 | 77 | 343 | 0.0 | 0.0 | 0.00 | 0.00 | 0.00 | 2 | |
| 20260505211219 | 78 | 343 | 0.0 | 0.0 | 0.00 | 0.00 | 0.00 | 2 | |
| 20260505210718 | 78 | 343 | 0.0 | 0.0 | 0.00 | 0.00 | 0.00 | 2 | |
| 20260505210219 | 80 | 343 | 0.0 | 0.0 | 0.00 | 0.00 | 0.00 | 2 | |
| 20260505203719 | 80 | 203 | 0.0 | 0.0 | 0.00 | 0.00 | 0.00 | 1 | |
| 20260505202719 | 78 | 203 | 0.0 | 0.0 | 0.00 | 0.00 | 0.00 | 2 | |
| 20260505202219 | 78 | 203 | 0.0 | 0.0 | 0.00 | 0.00 | 0.00 | 2 | |
| 20260505201718 | 78 | 203 | 0.0 | 0.0 | 0.00 | 0.00 | 0.00 | 2 | |
| 20260505201218 | 77 | 203 | 0.0 | 0.0 | 0.00 | 0.00 | 0.00 | 2 | |
| 20260505200719 | 77 | 203 | 0.0 | 0.0 | 0.00 | 0.00 | 0.00 | 3 | |
| 20260505200219 | 76 | 203 | 0.0 | 0.0 | 0.00 | 0.00 | 0.00 | 3 | |
| 20260505195719 | 76 | 203 | 0.0 | 0.0 | 0.00 | 0.00 | 0.00 | 3 | |
| 20260505195219 | 76 | 203 | 0.0 | 0.0 | 0.00 | 0.00 | 0.00 | 3 | |
| 20260505194719 | 76 | 203 | 0.0 | 0.0 | 0.00 | 0.00 | 0.00 | 3 | |
| 20260505194219 | 77 | 203 | 0.0 | 0.0 | 0.00 | 0.00 | 0.00 | 2 | |
| 20260505193719 | 78 | 203 | 0.0 | 0.0 | 0.00 | 0.00 | 0.00 | 2 | |
| 20260505193220 | 78 | 203 | 0.0 | 0.0 | 0.00 | 0.00 | 0.00 | 2 | |
| 20260505192719 | 78 | 203 | 0.0 | 0.0 | 0.00 | 0.00 | 0.00 | 2 | |
| 20260505192219 | 77 | 203 | 0.0 | 0.0 | 0.00 | 0.00 | 0.00 | 2 | |
| 20260505191719 | 77 | 203 | 0.0 | 0.0 | 0.00 | 0.00 | 0.00 | 2 | |
| 20260505191219 | 76 | 203 | 0.0 | 0.0 | 0.00 | 0.00 | 0.00 | 3 | |
| 20260505190719 | 76 | 255 | 0.0 | 0.0 | 0.00 | 0.00 | 0.00 | 3 | |
| 20260505190218 | 76 | 255 | 0.0 | 0.0 | 0.00 | 0.00 | 0.00 | 2 | |
| 20260505185719 | 77 | 255 | 0.0 | 0.0 | 0.00 | 0.00 | 0.00 | 2 | |
| 20260505185219 | 78 | 255 | 0.0 | 0.0 | 0.00 | 0.00 | 0.00 | 1 | |
| 20260505184719 | 78 | 255 | 0.0 | 0.0 | 0.00 | 0.00 | 0.00 | 1 | |
| 20260505184219 | 79 | 255 | 0.0 | 0.0 | 0.00 | 0.00 | 0.00 | 1 | |
| 20260505183719 | 79 | 255 | 0.0 | 0.0 | 0.00 | 0.00 | 0.00 | 1 | |
| 20260505183219 | 79 | 255 | 0.0 | 0.0 | 0.00 | 0.00 | 0.00 | 1 | |
| 20260505182719 | 79 | 255 | 0.0 | 0.0 | 0.00 | 0.00 | 0.00 | 0 | |
| 20260505182219 | 79 | 255 | 0.0 | 0.0 | 0.00 | 0.00 | 0.00 | 0 | |
| 20260505181718 | 80 | 255 | 0.0 | 0.0 | 0.00 | 0.00 | 0.00 | 0 | |
| 20260505181219 | 81 | 255 | 0.0 | 0.0 | 0.00 | 0.00 | 0.00 | 0 | |
| 20260505180719 | 82 | 255 | 0.0 | 0.0 | 0.00 | 0.00 | 0.00 | 0 | |
| 20260505180220 | 82 | 255 | 0.0 | 0.0 | 0.00 | 0.00 | 0.00 | 0 | |
| 20260505175718 | 82 | 255 | 0.0 | 0.0 | 0.00 | 0.00 | 0.00 | 1 | |
| 20260505175218 | 81 | 255 | 0.0 | 0.0 | 0.00 | 0.00 | 0.00 | 1 | |
| 20260505174719 | 80 | 255 | 0.0 | 0.0 | 0.00 | 0.00 | 0.00 | 1 | |
| 20260505174219 | 80 | 255 | 0.0 | 0.0 | 0.00 | 0.00 | 0.00 | 1 | |
| 20260505173718 | 81 | 255 | 0.0 | 0.0 | 0.00 | 0.00 | 0.00 | 1 | |
| 20260505173218 | 81 | 255 | 0.0 | 0.0 | 0.00 | 0.00 | 0.00 | 2 | |
| 20260505172718 | 80 | 255 | 0.0 | 0.0 | 0.00 | 0.00 | 0.00 | 2 | |
| 20260505172219 | 79 | 255 | 0.0 | 0.0 | 0.00 | 0.00 | 0.00 | 2 | |
| 20260505171719 | 79 | 255 | 0.0 | 0.0 | 0.00 | 0.00 | 0.00 | 2 | |
| 20260505171218 | 79 | 255 | 0.0 | 0.0 | 0.00 | 0.00 | 0.00 | 3 | |
| 20260505170718 | 78 | 255 | 0.0 | 0.0 | 0.00 | 0.00 | 0.00 | 3 | |
| 20260505170219 | 77 | 255 | 0.0 | 0.0 | 0.00 | 0.00 | 0.00 | 3 | |
| 20260505165719 | 76 | 255 | 0.0 | 0.0 | 0.00 | 0.00 | 0.00 | 4 | |
| 20260505165219 | 74 | 255 | 0.0 | 0.0 | 0.00 | 0.00 | 0.00 | 4 | |
| 20260505164719 | 73 | 246 | 0.0 | 0.0 | 0.00 | 0.00 | 0.00 | 4 | |
| 20260505164219 | 72 | 246 | 0.0 | 0.0 | 0.00 | 0.00 | 0.00 | 4 | |
| 20260505163719 | 72 | 246 | 0.0 | 0.0 | 0.00 | 0.00 | 0.00 | 4 | |
| 20260505163219 | 72 | 246 | 0.0 | 0.0 | 0.00 | 0.00 | 0.00 | 4 | |
| 20260505162719 | 72 | 246 | 0.0 | 0.0 | 0.00 | 0.00 | 0.00 | 4 | |
| 20260505162219 | 72 | 246 | 0.0 | 0.0 | 0.00 | 0.00 | 0.00 | 4 | |
| 20260505161719 | 72 | 246 | 0.0 | 0.0 | 0.00 | 0.00 | 0.00 | 4 | |
| 20260505161219 | 72 | 246 | 0.0 | 0.0 | 0.00 | 0.00 | 0.00 | 4 | |
| 20260505160718 | 71 | 246 | 0.0 | 0.0 | 0.00 | 0.00 | 0.00 | 5 | |
| 20260505160220 | 71 | 246 | 0.0 | 0.0 | 0.00 | 0.00 | 0.00 | 4 | |
| 20260505153220 | 69 | 246 | 0.0 | 0.0 | 0.00 | 0.00 | 0.00 | 5 | |
| 20260505152719 | 68 | 246 | 0.0 | 0.0 | 0.00 | 0.00 | 0.00 | 6 | |
| 20260505152219 | 68 | 246 | 0.0 | 0.0 | 0.00 | 0.00 | 0.00 | 6 | |
| 20260505151719 | 67 | 246 | 0.0 | 0.0 | 0.00 | 0.00 | 0.00 | 6 | |
| 20260505151219 | 67 | 246 | 0.0 | 0.0 | 0.00 | 0.00 | 0.00 | 6 | |
| 20260505150719 | 67 | 246 | 0.0 | 0.0 | 0.00 | 0.00 | 0.00 | 6 | |
| 20260505150220 | 67 | 246 | 0.0 | 0.0 | 0.00 | 0.00 | 0.00 | 6 | |
| 20260505140220 | 64 | 246 | 0.0 | 0.0 | 0.00 | 0.00 | 0.00 | 8 | |
| 20260505130220 | 63 | 308 | 0.0 | 0.0 | 0.00 | 0.00 | 0.00 | 8 | |
| 20260505124719 | 63 | 294 | 0.0 | 0.0 | 0.00 | 0.00 | 0.00 | 9 | |
| 20260505124220 | 63 | 294 | 0.0 | 0.0 | 0.00 | 0.00 | 0.00 | 9 | |
| 20260505123718 | 63 | 294 | 0.0 | 0.0 | 0.00 | 0.00 | 0.00 | 9 | |
| 20260505122719 | 63 | 294 | 0.0 | 0.0 | 0.00 | 0.00 | 0.00 | 8 | |
| 20260505122219 | 63 | 294 | 0.0 | 0.0 | 0.00 | 0.00 | 0.00 | 8 | |
| 20260505121719 | 64 | 294 | 0.0 | 0.0 | 0.00 | 0.00 | 0.00 | 8 | |
| 20260505121219 | 64 | 294 | 0.0 | 0.0 | 0.00 | 0.00 | 0.00 | 7 | |
| 20260505120719 | 64 | 294 | 0.0 | 0.0 | 0.00 | 0.00 | 0.00 | 7 | |
| 20260505115718 | 63 | 294 | 0.0 | 0.0 | 0.00 | 0.00 | 0.00 | 7 | |
| 20260505115219 | 63 | 294 | 0.0 | 0.0 | 0.00 | 0.00 | 0.00 | 8 | |
| 20260505114719 | 64 | 294 | 0.0 | 0.0 | 0.00 | 0.00 | 0.00 | 7 | |
| 20260505114218 | 64 | 294 | 0.0 | 0.0 | 0.00 | 0.00 | 0.00 | 7 | |
| 20260505113719 | 64 | 294 | 0.0 | 0.0 | 0.00 | 0.00 | 0.00 | 7 | |
| 20260505113219 | 64 | 283 | 0.0 | 0.0 | 0.00 | 0.00 | 0.00 | 7 | |
| 20260505112719 | 64 | 283 | 0.0 | 0.0 | 0.00 | 0.00 | 0.00 | 7 | |
| 20260505112219 | 64 | 283 | 0.0 | 0.0 | 0.00 | 0.00 | 0.00 | 7 | |
| 20260505111718 | 64 | 69 | 0.0 | 0.0 | 0.00 | 0.00 | 0.00 | 7 | |
| 20260505111219 | 64 | 69 | 0.0 | 0.0 | 0.00 | 0.00 | 0.00 | 6 | |
| 20260505110719 | 64 | 69 | 0.0 | 0.0 | 0.00 | 0.00 | 0.00 | 6 | |
| 20260505110219 | 64 | 69 | 0.0 | 0.0 | 0.00 | 0.00 | 0.00 | 6 | |
| 20260505102219 | 66 | 69 | 0.0 | 0.0 | 0.00 | 0.00 | 0.00 | 4 | |
| 20260505101718 | 66 | 69 | 0.0 | 0.0 | 0.00 | 0.00 | 0.00 | 4 | |
| 20260505101218 | 66 | 69 | 0.0 | 0.0 | 0.00 | 0.00 | 0.00 | 4 | |
| 20260505100718 | 66 | 69 | 0.0 | 0.0 | 0.00 | 0.00 | 0.00 | 4 | |
| 20260505100219 | 66 | 69 | 0.0 | 0.0 | 0.00 | 0.00 | 0.00 | 5 | |
| 20260505095718 | 66 | 69 | 0.0 | 0.0 | 0.00 | 0.00 | 0.00 | 5 | |
| 20260505095218 | 66 | 69 | 0.0 | 0.0 | 0.00 | 0.00 | 0.00 | 5 | |
| 20260505094718 | 66 | 69 | 0.0 | 0.0 | 0.00 | 0.00 | 0.00 | 5 | |
| 20260505093718 | 66 | 69 | 0.0 | 0.0 | 0.00 | 0.00 | 0.00 | 5 | |
| 20260505093219 | 66 | 69 | 0.0 | 0.0 | 0.00 | 0.00 | 0.00 | 5 | |
| 20260505092718 | 67 | 69 | 0.0 | 0.0 | 0.00 | 0.00 | 0.00 | 5 | |
| 20260505092218 | 67 | 69 | 0.0 | 0.0 | 0.00 | 0.00 | 0.00 | 4 | |
| 20260505091718 | 67 | 69 | 0.0 | 0.0 | 0.00 | 0.00 | 0.00 | 5 | |
| 20260505091218 | 67 | 69 | 0.0 | 0.0 | 0.00 | 0.00 | 0.00 | 5 | |
| 20260505090718 | 67 | 69 | 0.0 | 0.0 | 0.00 | 0.00 | 0.00 | 5 | |
| 20260505090219 | 67 | 69 | 0.0 | 0.0 | 0.00 | 0.00 | 0.00 | 4 | |
| 20260505085718 | 67 | 343 | 12.0 | 0.0 | 0.00 | 0.00 | 0.00 | 4 | |
| 20260505085219 | 67 | 266 | 0.0 | 0.0 | 0.00 | 0.00 | 0.00 | 4 | |
| 20260505084718 | 68 | 304 | 0.0 | 0.0 | 0.00 | 0.00 | 0.00 | 4 | |
| 20260505083718 | 68 | 304 | 0.0 | 0.0 | 0.00 | 0.00 | 0.00 | 4 | |
| 20260505083219 | 68 | 304 | 0.0 | 0.0 | 0.00 | 0.00 | 0.00 | 4 | |
| 20260505082721 | 68 | 304 | 0.0 | 0.0 | 0.00 | 0.00 | 0.00 | 3 | |
| 20260505082719 | 68 | 304 | 0.0 | 0.0 | 0.00 | 0.00 | 0.00 | 3 | |
| 20260505082218 | 68 | 304 | 0.0 | 0.0 | 0.00 | 0.00 | 0.00 | 3 | |
| 20260505081718 | 68 | 304 | 0.0 | 0.0 | 0.00 | 0.00 | 0.00 | 3 | |
| 20260505081219 | 68 | 304 | 0.0 | 0.0 | 0.00 | 0.00 | 0.00 | 3 | |
| 20260505080717 | 68 | 304 | 0.0 | 0.0 | 0.00 | 0.00 | 0.00 | 3 | |
| 20260505080219 | 69 | 304 | 0.0 | 0.0 | 0.00 | 0.00 | 0.00 | 3 | |
| 20260505075717 | 69 | 304 | 0.0 | 0.0 | 0.00 | 0.00 | 0.00 | 3 | |
| 20260505075218 | 69 | 304 | 0.0 | 0.0 | 0.00 | 0.00 | 0.00 | 2 | |
| 20260505074718 | 69 | 304 | 0.0 | 0.0 | 0.00 | 0.00 | 0.00 | 2 |